Regional Weather Roundup
Issued by NWS Sterling, VA

Home | Current Version | Previous Version | Graphics & Text | Print | Product List | Glossary On
Versions: 1 2 3 4 5 6 7 8 9 10 11 12 13 14 15 16 17 18 19 20 21 22 23 24 25 26 27 28 29 30 31 32 33 34 35 36 37 38 39 40 41 42 43 44 45 46 47 48
000
ASUS41 KLWX 251510
RWRLWX

REGIONAL WEATHER ROUNDUP
NATIONAL WEATHER SERVICE BALTIMORE MD/WASHINGTON DC
1000 AM EST SUN JAN 25 2015

Note: "FAIR" indicates few or no clouds below 12,000 feet
with no significant weather and/or obstructions to visibility.
 TC=TEMPERATURE CELSIUS

 * =Non NWS site. Station does not report precipitation (e.g. rain,
    snow, etc.), thunder, or fog.

DCZ001-MDZ009-015-VAZ040>042-051-053>054-251600-
WASHINGTON METRO

CITY           SKY/WX    TMP DP  RH WIND       PRES   REMARKS
WASHINGTON NAT CLOUDY    47  28  47 SW8       29.85R
DULLES         CLOUDY    40  28  62 SW8       29.84S
ANDREWS AFB    CLOUDY    41  29  62 SW8       29.84R
FT BELVOIR     PTSUNNY   43  28  56 W6        29.86R
QUANTICO       PTSUNNY   42  30  62 NW7       29.87S
COLLEGE PARK*  CLOUDY    43  30  61 W3        29.84S
LEESBURG*      CLOUDY    41  32  70 SW6       29.85R
MANASSAS*      SUNNY     39  30  70 CALM      29.86S
GAITHERSBURG*  CLOUDY    39  27  60 SW5       29.87R

$$

MDZ006>007-011-014-251600-
BALTIMORE METRO

CITY           SKY/WX    TMP DP  RH WIND       PRES   REMARKS
BWI AIRPORT    PTSUNNY   41  27  57 W9        29.83R
MD SCIENCE CTR   N/A     41  27  57 MISG      29.85R
MARTIN STATE   CLOUDY    43  30  61 SW9       29.85R
ANNAPOLIS      PTSUNNY   43  29  57 SW3       29.84R
FORT MEADE*    PTSUNNY   41  30  65 W7        29.86R

$$

MDZ012-015-019>023-251600-
MARYLAND EASTERN SHORE

CITY           SKY/WX    TMP DP  RH WIND       PRES   REMARKS
OCEAN CITY     SUNNY     42  30  62 W9        29.86S
SALISBURY      SUNNY     46  32  58 SW9       29.87R
BAY BRIDGE AP*   N/A     41  28  60 SW7       29.85R
CAMBRIDGE*     PTSUNNY   43  32  65 SW5       29.85R
EASTON*        MOSUNNY   45  32  61 W10       29.89R

$$

MDZ017>025-251600-
SOUTHERN MARYLAND

CITY           SKY/WX    TMP DP  RH WIND       PRES   REMARKS
PATUXENT RIVER PTSUNNY   41  30  65 SW9       29.87R
ST INIGOES     PTSUNNY   39  29  67 SW9       29.88R
LEONARDTOWN*   PTSUNNY   39  30  70 SW8       29.88R

$$

MDZ003>005-251600-
NORTH CENTRAL MARYLAND

CITY           SKY/WX    TMP DP  RH WIND       PRES   REMARKS
FREDERICK*     CLOUDY    41  28  60 SW9       29.85R
HAGERSTOWN APT CLOUDY    39  29  67 S7        29.80R
WESTMINSTER*   CLOUDY    37  32  81 SW7       29.80R

$$

MDZ501>502-251600-
WESTERN MARYLAND

CITY           SKY/WX    TMP DP  RH WIND       PRES   REMARKS
OAKLAND*       FOG       30 N/A N/A SW5       29.72R VSB 1/2
CUMBERLAND*    CLOUDY    39  32  75 S5        29.84R

$$

VAZ025>031-251600-
SHENANDOAH VALLEY

CITY           SKY/WX    TMP DP  RH WIND       PRES   REMARKS
WINCHESTER*    CLOUDY    41  28  60 SW7       29.83R
FRONT ROYAL*   CLOUDY    39  30  70 SW6       29.83R
LURAY*         CLOUDY    41  32  70 SW8       29.85R
NEW MARKET*    CLOUDY    38  29  70 SW7       29.85R
STAUNTON*      MOSUNNY   40  29  65 SW8       29.86S
WAYNESBORO*    FAIR      37  28  70 W9G18     29.84R

$$

WVZ021-048>050-054>055-251600-
EASTERN WEST VIRGINIA PANHANDLE

CITY           SKY/WX    TMP DP  RH WIND       PRES   REMARKS
MARTINSBURG    CLOUDY    43  29  57 SW8       29.82R
PETERSBURG*    CLOUDY    43  28  56 S6        29.82R

$$

VAZ036>039-050-251600-
CENTRAL FOOTHILLS

CITY           SKY/WX    TMP DP  RH WIND       PRES   REMARKS
CHARLOTTESVILL PTSUNNY   40  28  62 S6        29.84S
CULPEPER*      PTSUNNY   45  30  57 SW5       29.86R
ORANGE*        PTSUNNY   39  32  75 SE3       29.86S
GORDONSVILLE*  FAIR      35  28  76 CALM      29.85S
WARRENTON*     FAIR      41  34  75 W3        29.85R

$$

VAZ055>057-251600-
NORTH AND CENTRAL PIEDMONT

CITY           SKY/WX    TMP DP  RH WIND       PRES   REMARKS
FREDERICKSBRG* PTSUNNY   41  31  68 SW8       29.87R
STAFFORD*      PTSUNNY   41  28  59 CALM      29.91R

$$

NCZ024-NYZ072-PAZ021-071-VAZ022-071-251600-
OTHER REGIONAL OBSERVATIONS

CITY           SKY/WX    TMP DP  RH WIND       PRES   REMARKS
NEW YORK CITY  SUNNY     39  27  62 W5        29.75R
PHILADELPHIA   PTSUNNY   40  30  67 W15       29.80S
PITTSBURGH     CLOUDY    34  31  88 SW6       29.77R FOG
ROANOKE        CLOUDY    38  28  67 W8        29.89R
RICHMOND       PTSUNNY   44  32  62 W9        29.91R
RALEIGH        MOSUNNY   42  31  64 SW3       29.96R

$$

ANZ530>537-251600-
MARINE OBSERVATIONS

STATION/POSITION TIME  TEMP    WIND        PRES
                       AIR SEA DIR/SP/G
                 (UTC) (F)     (DEG/KT/KT) (MB)
THOMAS PT LIGHT  1500   37 37  180/ 10/ 11 1011.9R
BALT KEY BRIDGE  1500   42     230/ 11/ 15 1010.1R
COVE POINT       1500   40     260/  9/ 13 1010.8S
LEWISETTA        1500   39 37  250/  9/ 11 1011.9R
SOLOMONS ISLAND  1500      38                N/A
PINEY POINT      1500          260/  1/  3   N/A

$$




USA.gov is the U.S. government's official web portal to all federal, state and local government web resources and services.